Location: Franzen
(48.6167°N, 15.3833°E)
Time: 12:33:29
(UTC+00:00)

Cosmos 407 Rocket - Pass Details

Date: 22 April 2021
Orbit: 743 x 787 km, 74.0° (Epoch: 16 May)

Event Time Altitude Azimuth Distance (km) Brightness Sun altitude
Rises 20:00:33 0° 215° (SW) 3,176 6.6 -17.5°
Reaches altitude 10° 20:02:56 10° 220° (SW) 2,260 5.9 -17.8°
Maximum altitude 20:07:57 55° 298° (WNW) 908 4.2 -18.4°
Drops below altitude 10° 20:13:03 10° 16° (NNE) 2,298 6.4 -19.0°
Sets 20:15:30 0° 21° (NNE) 3,235 7.1 -19.3°
